When you browse on this site, cookies collect data to enhance your experience and personalize the content and advertising you see.
Visit our Privacy Policy to learn more. By continuing to use the site, you agree to this use of cookies and data.
  • In Italy
  • List of Countries
  • For 7 days
  • Water Temperature
  • Satellite Maps
  • Weather Map
  • Weather Widgets
  • user-avatar
    Login

    Hourly Weather Ahtopol

    Today, 26 May, Sunday

    Time Temperature Precipitation Wind Pressure Humidity
    00:00 +16°C° 0 mm 2 mps 758 mmHg 87%
    01:00 +16°C° 0 mm 2 mps 759 mmHg 88%
    02:00 +14°C° 0 mm 3 mps 758 mmHg 86%
    03:00 +14°C° 0 mm 3 mps 759 mmHg 86%
    04:00 +14°C° 0 mm 3 mps 759 mmHg 86%
    05:00 +14°C° 0 mm 3 mps 759 mmHg 86%
    06:00 +17°C° 0 mm 3 mps 759 mmHg 80%
    07:00 +19°C° 0 mm 3 mps 759 mmHg 74%
    08:00 +21°C° 0 mm 2 mps 760 mmHg 68%
    09:00 +24°C° 0 mm 2 mps 760 mmHg 63%
    10:00 +25°C° 0 mm 1 mps 760 mmHg 57%
    11:00 +27°C° 0 mm 1 mps 760 mmHg 52%
    12:00 +27°C° 0.1 mm 1 mps 760 mmHg 51%
    13:00 +28°C° 0.1 mm 2 mps 760 mmHg 49%
    14:00 +28°C° 0.1 mm 2 mps 760 mmHg 48%
    15:00 +28°C° 0 mm 2 mps 760 mmHg 51%
    16:00 +27°C° 0 mm 3 mps 760 mmHg 55%
    17:00 +26°C° 0 mm 3 mps 760 mmHg 58%
    18:00 +24°C° 0 mm 3 mps 760 mmHg 66%
    19:00 +21°C° 0 mm 3 mps 760 mmHg 73%
    20:00 +19°C° 0 mm 2 mps 760 mmHg 81%
    21:00 +19°C° 0 mm 2 mps 760 mmHg 82%
    22:00 +18°C° 0 mm 2 mps 760 mmHg 84%
    23:00 +18°C° 0 mm 2 mps 761 mmHg 86%

    Tomorrow, 27 May, Monday

    Time Temperature Precipitation Wind Pressure Humidity
    00:00 +18°C° 0 mm 1 mps 761 mmHg 87%
    01:00 +18°C° 0 mm 1 mps 760 mmHg 87%
    02:00 +18°C° 0 mm 1 mps 760 mmHg 88%
    03:00 +18°C° 0 mm 1 mps 760 mmHg 89%
    04:00 +18°C° 0 mm 1 mps 760 mmHg 89%
    05:00 +16°C° 0 mm 1 mps 760 mmHg 89%
    06:00 +20°C° 0 mm 1 mps 760 mmHg 82%
    07:00 +22°C° 0 mm 1 mps 761 mmHg 75%
    08:00 +24°C° 0 mm 1 mps 761 mmHg 68%
    09:00 +25°C° 0 mm 2 mps 761 mmHg 62%
    10:00 +26°C° 0 mm 3 mps 761 mmHg 57%
    11:00 +27°C° 0 mm 4 mps 761 mmHg 51%
    12:00 +27°C° 0 mm 4 mps 760 mmHg 51%
    13:00 +27°C° 0 mm 5 mps 760 mmHg 52%
    14:00 +27°C° 0 mm 5 mps 760 mmHg 52%
    15:00 +26°C° 0 mm 5 mps 759 mmHg 55%
    16:00 +25°C° 0 mm 5 mps 759 mmHg 58%
    17:00 +25°C° 0 mm 5 mps 759 mmHg 62%
    18:00 +22°C° 0 mm 4 mps 759 mmHg 71%
    19:00 +20°C° 0 mm 4 mps 759 mmHg 80%
    20:00 +18°C° 0 mm 3 mps 759 mmHg 89%
    21:00 +17°C° 0 mm 3 mps 759 mmHg 91%
    22:00 +17°C° 0 mm 2 mps 759 mmHg 92%
    23:00 +16°C° 0 mm 2 mps 759 mmHg 93%

    Day after tomorrow, 28 May, Tuesday

    Time Temperature Precipitation Wind Pressure Humidity
    00:00 +16°C° 0 mm 2 mps 759 mmHg 93%
    01:00 +16°C° 0 mm 2 mps 759 mmHg 92%
    02:00 +15°C° 0 mm 1 mps 758 mmHg 92%
    03:00 +15°C° 0 mm 1 mps 758 mmHg 92%
    04:00 +15°C° 0 mm 1 mps 758 mmHg 92%
    05:00 +15°C° 0 mm 1 mps 758 mmHg 92%
    06:00 +17°C° 0 mm 2 mps 757 mmHg 85%
    07:00 +20°C° 0 mm 2 mps 757 mmHg 78%
    08:00 +23°C° 0 mm 2 mps 757 mmHg 70%
    09:00 +25°C° 0 mm 2 mps 757 mmHg 65%
    10:00 +26°C° 0 mm 3 mps 757 mmHg 60%
    11:00 +28°C° 0 mm 3 mps 757 mmHg 54%
    12:00 +29°C° 0 mm 3 mps 756 mmHg 53%
    13:00 +30°C° 0 mm 4 mps 756 mmHg 51%
    14:00 +30°C° 0 mm 4 mps 756 mmHg 50%
    15:00 +30°C° 0 mm 4 mps 755 mmHg 53%
    16:00 +29°C° 0 mm 4 mps 755 mmHg 56%
    17:00 +28°C° 0 mm 4 mps 754 mmHg 59%
    18:00 +26°C° 0 mm 3 mps 754 mmHg 65%
    19:00 +24°C° 0 mm 3 mps 754 mmHg 71%
    20:00 +21°C° 0 mm 2 mps 754 mmHg 77%
    21:00 +20°C° 0 mm 2 mps 754 mmHg 73%
    22:00 +20°C° 0 mm 3 mps 755 mmHg 69%
    23:00 +19°C° 0 mm 3 mps 755 mmHg 64%

    29 May, Wednesday

    Time Temperature Precipitation Wind Pressure Humidity
    00:00 +18°C° 0 mm 3 mps 755 mmHg 68%
    01:00 +18°C° 0 mm 3 mps 755 mmHg 71%
    02:00 +17°C° 0 mm 3 mps 755 mmHg 75%
    03:00 +17°C° 0 mm 3 mps 755 mmHg 79%
    04:00 +17°C° 0 mm 3 mps 755 mmHg 83%
    05:00 +16°C° 0 mm 3 mps 755 mmHg 86%
    06:00 +19°C° 0 mm 3 mps 755 mmHg 79%
    07:00 +21°C° 0 mm 3 mps 755 mmHg 72%
    08:00 +24°C° 0 mm 3 mps 755 mmHg 64%
    09:00 +26°C° 0 mm 3 mps 755 mmHg 59%
    10:00 +28°C° 0 mm 3 mps 756 mmHg 54%
    11:00 +29°C° 0 mm 3 mps 756 mmHg 49%
    12:00 +30°C° 0 mm 3 mps 755 mmHg 47%
    13:00 +30°C° 0 mm 3 mps 755 mmHg 46%
    14:00 +31°C° 0 mm 3 mps 755 mmHg 44%
    15:00 +31°C° 0 mm 3 mps 755 mmHg 46%
    16:00 +30°C° 0 mm 3 mps 755 mmHg 48%
    17:00 +30°C° 0 mm 3 mps 755 mmHg 50%
    18:00 +28°C° 0 mm 3 mps 755 mmHg 56%
    19:00 +26°C° 0 mm 3 mps 755 mmHg 62%
    20:00 +24°C° 0 mm 3 mps 756 mmHg 68%
    21:00 +22°C° 0 mm 3 mps 756 mmHg 71%
    22:00 +21°C° 0 mm 3 mps 756 mmHg 73%
    23:00 +19°C° 0 mm 2 mps 756 mmHg 76%

    30 May, Thursday

    Time Temperature Precipitation Wind Pressure Humidity
    00:00 +19°C° 0 mm 2 mps 757 mmHg 78%
    01:00 +19°C° 0 mm 2 mps 757 mmHg 80%
    02:00 +18°C° 0 mm 2 mps 757 mmHg 82%
    03:00 +18°C° 0 mm 2 mps 757 mmHg 83%
    04:00 +18°C° 0 mm 2 mps 757 mmHg 84%
    05:00 +18°C° 0 mm 2 mps 757 mmHg 85%
    06:00 +20°C° 0 mm 2 mps 757 mmHg 79%
    07:00 +23°C° 0 mm 2 mps 757 mmHg 73%
    08:00 +25°C° 0 mm 2 mps 758 mmHg 66%
    09:00 +27°C° 0 mm 2 mps 758 mmHg 62%
    10:00 +28°C° 0 mm 2 mps 758 mmHg 58%
    11:00 +29°C° 0 mm 2 mps 758 mmHg 53%
    12:00 +29°C° 0.4 mm 2 mps 758 mmHg 54%
    13:00 +30°C° 0.4 mm 2 mps 757 mmHg 54%
    14:00 +30°C° 0.4 mm 3 mps 757 mmHg 55%
    15:00 +29°C° 0.6 mm 2 mps 757 mmHg 57%
    16:00 +29°C° 0.6 mm 1 mps 757 mmHg 59%
    17:00 +28°C° 0.6 mm 1 mps 757 mmHg 60%
    18:00 +27°C° 0.1 mm 1 mps 757 mmHg 65%
    19:00 +25°C° 0.1 mm 1 mps 757 mmHg 71%
    20:00 +21°C° 0.1 mm 0 mps 758 mmHg 76%
    21:00 +23°C° 0.2 mm 1 mps 758 mmHg 78%
    22:00 +22°C° 0.2 mm 1 mps 758 mmHg 80%
    23:00 +21°C° 0.2 mm 1 mps 758 mmHg 83%

    31 May, Friday

    Time Temperature Precipitation Wind Pressure Humidity
    00:00 +20°C° 0 mm 2 mps 758 mmHg 84%
    01:00 +19°C° 0 mm 2 mps 758 mmHg 85%
    02:00 +19°C° 0 mm 3 mps 758 mmHg 86%
    03:00 +18°C° 0 mm 4 mps 758 mmHg 86%
    04:00 +18°C° 0 mm 4 mps 758 mmHg 86%
    05:00 +16°C° 0 mm 5 mps 758 mmHg 86%
    06:00 +17°C° 0 mm 5 mps 759 mmHg 83%
    07:00 +20°C° 0 mm 5 mps 759 mmHg 79%
    08:00 +21°C° 0 mm 6 mps 759 mmHg 76%
    09:00 +22°C° 0 mm 6 mps 759 mmHg 73%
    10:00 +23°C° 0 mm 6 mps 759 mmHg 71%
    11:00 +25°C° 0 mm 5 mps 759 mmHg 69%
    12:00 +25°C° 0.1 mm 5 mps 759 mmHg 69%
    13:00 +25°C° 0.1 mm 5 mps 759 mmHg 70%
    14:00 +25°C° 0.1 mm 5 mps 758 mmHg 70%
    15:00 +23°C° 0.2 mm 4 mps 758 mmHg 73%
    16:00 +23°C° 0.2 mm 4 mps 758 mmHg 77%
    17:00 +22°C° 0.2 mm 3 mps 758 mmHg 80%
    18:00 +21°C° 0.3 mm 3 mps 758 mmHg 84%
    19:00 +21°C° 0.3 mm 2 mps 758 mmHg 87%
    20:00 +20°C° 0.3 mm 2 mps 758 mmHg 91%
    21:00 +20°C° 0.5 mm 3 mps 758 mmHg 92%
    22:00 +19°C° 0.5 mm 4 mps 758 mmHg 92%
    23:00 +19°C° 0.5 mm 5 mps 758 mmHg 93%
    Show more